STARLINK-30353

Satellite information

Favourite Embed

Satellite Type and Status

PAYLOADIN ORBIT

Key statistics

Satellite STARLINK-30353 at a glance.

Uptime

747

Days in orbit

Revolutions

≈ 15.3

Per day

Orbit

LEO

Low Earth Orbit

Inclination

53.2

Latest

Satellite identification and parameters

Extended collection of information and parameters for STARLINK-30353.

Object identification

Identified? True

Debris? False

Object name: STARLINK-30353

International designator: 2023-161S

Object number (NORAD): 58113

Object ID (CCSDS): 58113

Country: UNITED STATES OF AMERICA (US)

Current information (Y/N): Y

RCS size: LARGE

Orbital parameters

Period: 94.105 minutes

Inclination: 53.1597 deg

SMA: 6853.329 km

Apoapsis: 475.98 km

Periapsis: 474.408 km

RAAN: 22.0151 deg

Eccentricy: 0.00011466

Argument of periapsis: 72.6778 deg

Mean anomaly: 287.4348 deg

Mean motion: 15.30207641 rev/day

Mean motion (dot): 0.00014987 rev/day2

B* drag term: 0.00051699376 1/REarth

Two-line elements (TLE)

Creation date: Nov. 6, 2025, 3:23 a.m.

Reference frame: TEME

Reference center: EARTH

Epoch: Nov. 5, 2025, 2:58 p.m. UTC

TLE line 0: 0 STARLINK-30353

TLE line 1: 1 58113U 23161S 25309.62400113 .00014987 00000-0 51699-3 0 9999

TLE line 2: 2 58113 53.1597 22.0151 0001147 72.6778 287.4348 15.30207641115429

Live tracking on map

Real-time ground track for satellite STARLINK-30353.

In-orbit conjunctions

There are no conjunctions computed for STARLINK-30353, at the moment. Check back to stay up to date, as we update our databases every day.

Go to all conjunctions

Associated space launch

A batch of 21 satellites for the Starlink mega-constellation - SpaceX's project for space-based Internet communication system.

STARLINK-30353 was lifted into orbit during the mission ‘Falcon 9 Block 5 | Starlink Group 7-5’, on board a Falcon 9 space rocket.

The launch took place on Oct. 21, 2023, 8:23 a.m. from Space Launch Complex 4E.

For more information about the launch, click the button.

Launch to space Falcon 9 Block 5 | Starlink Group 7-5
Falcon 9 Block 5 | Starlink Group 7-5

Agency: SpaceX

Status: Launch Successful

Launch date: Oct. 21, 2023, 8:23 a.m. UTC

Rocket: Falcon 9

Launch pad: Space Launch Complex 4E

Location: Vandenberg SFB, CA, USA

...

Latest news about this satellite

News about space launch
Launch Roundup: SpaceX to launch three Starlink missions; India to test crew abort system

Another busy period in spaceflight is underway with three Falcon 9 rockets with Starlink payloads and the first test flight of India’s Gaganyaan crew-capable spacecraft. Starlink 6-23 and 6-24 are set to fly from Space Launch Complex (SLC) 40 at Cape Cana...


Newsletter sign-up

Weekly statistics, charts and insights to help you stay on top of the space industry.